DateTimeUTC,F1_A11,F1_S11,BsB_S11,BsG_S11,BsR_S11,BbsB_S11,BbsG_S11,BbsR_S11,BaB_A11,BaG_A11,BaR_A11,Tu_S11,T_S11,Uu_S11,U_S11,P_S11,T1_A11
2021-08-25T13:00:00Z,00000200,20000000,,,,,,,0000.03,0000.06,0000.09,19.3,25.8,08.5,05.7,0676.1,31.1
2021-08-25T13:01:00Z,00000200,20000000,,,,,,,-000.19,-000.38,-000.29,19.3,25.9,08.5,05.7,0676.1,31.1
2021-08-25T13:02:00Z,00000200,20000000,,,,,,,0000.38,0000.24,0000.30,19.3,25.9,08.5,05.7,0676.1,31.1
2021-08-25T13:03:00Z,00000200,60000000,,,,,,,0000.63,0001.14,0000.84,19.3,25.9,08.5,05.7,0676.1,31.1
2021-08-25T13:04:00Z,00000200,40000000,0005.61,0004.68,0003.41,0001.41,0000.91,0000.73,0000.58,0000.54,0000.44,19.5,25.8,08.4,05.7,0676.9,31.1
2021-08-25T13:05:00Z,00000200,00000000,0006.20,0005.33,0003.47,0002.01,0000.74,0000.08,0001.01,0001.18,0000.93,19.5,25.7,08.2,05.7,0677.1,31.1
2021-08-25T13:06:00Z,00000200,00000000,0006.19,0005.37,0003.64,0001.06,0000.87,0000.16,0001.33,0000.89,0000.65,19.5,25.7,08.0,05.5,0677.1,31.1
2021-08-25T13:07:00Z,00000200,00000000,0006.27,0004.79,0003.81,0001.16,0000.50,0000.40,0001.20,0000.88,0001.09,19.6,25.7,08.1,05.5,0677.0,31.1
2021-08-25T13:08:00Z,00000200,00000000,0006.47,0005.42,0003.47,0000.77,0000.45,0000.63,0001.00,0001.15,0001.11,19.6,25.7,08.1,05.6,0677.0,31.1
2021-08-25T13:09:00Z,00000200,00000000,0007.44,0005.56,0004.09,0001.06,0001.19,0000.89,0001.26,0001.35,0000.47,19.6,25.8,08.0,05.5,0676.9,31.1
2021-08-25T13:10:00Z,00000200,00000000,0006.47,0005.25,0003.85,0001.56,0000.74,0000.63,0001.92,0001.74,0001.21,19.6,25.7,08.0,05.5,0677.0,31.1
2021-08-25T13:11:00Z,00000200,00000000,0006.04,0005.29,0003.63,0000.91,0000.65,0000.28,0001.07,0001.20,0001.36,19.6,25.8,08.3,05.7,0677.0,31.1
2021-08-25T13:12:00Z,00000200,00000000,0006.17,0005.14,0003.32,0001.05,0000.40,0000.46,0001.59,0001.55,0001.10,19.6,25.8,08.2,05.7,0677.0,31.1
2021-08-25T13:13:00Z,00000200,00000000,0006.39,0005.28,0003.62,0000.67,0000.61,0000.51,0001.29,0000.98,0000.94,19.6,25.8,08.3,05.7,0677.1,31.1
2021-08-25T13:14:00Z,00000200,00000000,0006.26,0004.85,0003.51,0001.44,0001.00,0000.61,0001.31,0001.13,0000.90,19.6,25.8,08.3,05.7,0677.0,31.1
2021-08-25T13:15:00Z,00000200,00000000,0006.98,0005.32,0003.01,0000.54,0000.65,0000.38,0000.75,0000.97,0000.71,19.6,25.8,08.3,05.7,0677.0,31.1
2021-08-25T13:16:00Z,00000200,00000000,0006.11,0004.99,0003.45,0000.83,0000.77,0000.42,0001.62,0001.34,0001.28,19.6,25.8,08.3,05.7,0677.0,31.1
2021-08-25T13:17:00Z,00000200,00000000,0005.67,0005.05,0003.20,0001.26,0000.95,0000.27,0000.96,0000.91,0000.43,19.6,25.8,08.5,05.9,0677.0,31.1
2021-08-25T13:18:00Z,00000200,00000000,0006.05,0005.27,0003.34,0001.20,0000.53,0000.13,0000.78,0000.52,0000.74,19.6,25.8,08.3,05.8,0677.0,31.1
2021-08-25T13:19:00Z,00000200,00000000,0006.69,0005.57,0003.58,0001.30,0001.00,0000.41,0001.79,0001.76,0001.52,19.6,25.8,08.1,05.6,0677.0,31.1
2021-08-25T13:20:00Z,00000200,00000000,0006.08,0005.34,0003.79,0000.26,0000.48,0000.44,0000.63,0001.15,0000.24,19.6,25.8,08.3,05.7,0677.0,31.1
2021-08-25T13:21:00Z,00000200,00000000,0006.85,0005.27,0003.92,0001.05,0000.69,0000.40,0001.56,0001.04,0001.10,19.6,25.8,08.1,05.6,0677.0,31.1
2021-08-25T13:22:00Z,00000200,00000000,0006.63,0005.30,0003.86,0001.33,0000.65,0001.06,0001.56,0000.97,0001.15,19.6,25.8,08.1,05.6,0677.0,31.1
2021-08-25T13:23:00Z,00000200,00000000,0006.73,0004.90,0003.73,0001.16,0000.52,0000.44,0001.35,0001.41,0001.22,19.6,25.8,08.4,05.8,0677.0,31.1
2021-08-25T13:24:00Z,00000200,00000000,0005.92,0005.27,0003.00,0000.73,0000.50,0000.40,0001.01,0001.37,0000.80,19.7,25.8,08.3,05.7,0677.0,31.1
2021-08-25T13:25:00Z,00000200,00000000,0006.57,0005.07,0003.49,0001.45,0000.60,0000.46,0001.15,0000.93,0000.90,19.7,25.8,08.2,05.7,0677.0,31.1
2021-08-25T13:26:00Z,00000200,00000000,0006.38,0004.76,0003.37,0000.79,0000.79,-000.02,0000.77,0000.54,0000.74,19.7,25.8,08.2,05.6,0676.9,31.1
2021-08-25T13:27:00Z,00000200,00000000,0006.23,0004.92,0003.18,0001.72,0000.54,0000.30,0001.97,0001.93,0001.45,19.7,25.8,08.2,05.7,0676.9,31.1
2021-08-25T13:28:00Z,00000200,00000000,0006.63,0005.13,0003.46,0000.71,0000.85,0000.38,0000.91,0001.04,0000.67,19.7,25.8,08.2,05.7,0676.9,31.1
2021-08-25T13:29:00Z,00000200,00000000,0006.37,0005.57,0003.57,0000.65,0000.51,0000.54,0001.27,0000.89,0000.81,19.7,25.8,08.2,05.6,0676.9,31.1
2021-08-25T13:30:00Z,00000200,00000000,0005.99,0005.36,0003.33,0000.55,0001.00,0000.11,0001.43,0001.62,0001.53,19.7,25.9,08.2,05.7,0676.9,31.1
2021-08-25T13:31:00Z,00000200,00000000,0006.14,0005.18,0003.54,0000.79,0000.94,0000.21,0000.98,0000.73,0000.45,19.7,25.8,08.2,05.7,0676.9,31.1
2021-08-25T13:32:00Z,00000200,00000000,0006.87,0005.44,0003.40,0000.93,0000.95,0000.43,0001.32,0001.29,0001.03,19.7,25.8,08.2,05.6,0676.9,31.1
2021-08-25T13:33:00Z,00000200,00000000,0005.78,0005.49,0003.42,0001.07,0000.75,0000.20,0001.78,0001.36,0001.24,19.7,25.8,08.2,05.7,0676.9,31.1
2021-08-25T13:34:00Z,00000200,00000000,0006.76,0005.19,0003.45,0001.06,0000.67,0000.80,0000.73,0001.15,0000.75,19.7,25.8,08.2,05.6,0676.9,31.1
2021-08-25T13:35:00Z,00000200,00000000,0006.18,0005.15,0003.39,0000.81,0000.89,0000.28,0001.80,0001.51,0001.45,19.7,25.8,08.3,05.7,0677.0,31.1
2021-08-25T13:36:00Z,00000200,00000000,0006.03,0004.88,0003.58,0001.06,0000.84,0000.18,0000.86,0001.01,0000.70,19.7,25.8,08.5,05.8,0677.0,31.1
2021-08-25T13:37:00Z,00000200,00000000,0006.20,0004.78,0003.59,0001.02,0000.75,0000.68,0001.43,0001.06,0000.93,19.7,25.9,08.4,05.8,0677.0,31.1
2021-08-25T13:38:00Z,00000200,00000000,0006.15,0005.24,0003.60,0000.68,0000.81,0000.44,0000.63,0001.00,0000.48,19.7,25.9,08.2,05.7,0676.9,31.1
2021-08-25T13:39:00Z,00000200,00000000,0006.78,0005.40,0003.33,0001.36,0000.95,0000.99,0001.39,0000.91,0001.21,19.8,25.9,08.3,05.7,0676.9,31.1
2021-08-25T13:40:00Z,00000200,00000000,0006.07,0004.85,0003.14,0001.04,0000.90,0000.66,0001.44,0001.72,0001.01,19.8,25.9,08.4,05.8,0676.9,31.1
2021-08-25T13:41:00Z,00000200,00000000,0006.36,0005.21,0003.72,0000.91,0000.76,0000.44,0001.46,0000.78,0001.10,19.8,25.9,08.4,05.8,0676.9,31.1
2021-08-25T13:42:00Z,00000200,00000000,0006.42,0005.31,0003.76,0001.20,0000.81,0000.48,0000.93,0001.24,0000.56,19.8,25.9,08.5,05.9,0676.9,31.1
2021-08-25T13:43:00Z,00000200,00000000,0006.56,0005.05,0003.48,0000.98,0000.73,0000.32,0001.72,0001.24,0001.04,19.8,25.9,08.3,05.8,0676.9,31.1
2021-08-25T13:44:00Z,00000200,00000000,0006.58,0004.86,0003.39,0000.64,0000.69,0000.32,0000.77,0001.14,0000.86,19.8,25.9,08.4,05.8,0676.9,31.1
2021-08-25T13:45:00Z,00000200,00000000,0006.19,0005.21,0003.34,0001.04,0000.61,0000.34,0001.10,0001.18,0001.23,19.8,25.9,08.3,05.7,0676.9,31.1
2021-08-25T13:46:00Z,00000200,00000000,0006.67,0005.48,0003.17,0001.15,0000.89,0000.28,0001.16,0000.99,0000.75,19.8,25.9,08.4,05.8,0676.9,31.1
2021-08-25T13:47:00Z,00000200,00000000,0006.33,0005.04,0003.28,0000.87,0000.66,0000.39,0001.33,0001.46,0001.33,19.8,25.9,08.3,05.8,0676.9,31.1
2021-08-25T13:48:00Z,00000200,00000000,0006.15,0005.10,0003.32,0001.15,0000.67,0000.49,0001.57,0001.09,0000.73,19.8,25.9,08.4,05.8,0676.9,31.1
2021-08-25T13:49:00Z,00000200,00000000,0006.40,0004.54,0003.62,0000.49,0000.65,0000.79,0001.55,0001.13,0000.69,19.8,25.9,08.6,06.0,0676.9,31.1
2021-08-25T13:50:00Z,00000200,00000000,0006.49,0004.79,0003.15,0001.07,0000.57,0000.14,0000.94,0001.24,0001.12,19.8,25.9,08.5,05.9,0676.9,31.1
2021-08-25T13:51:00Z,00000200,00000000,0006.16,0005.15,0003.21,0000.73,0000.65,0000.13,0001.28,0001.30,0001.13,19.8,25.9,08.6,05.9,0676.9,31.1
2021-08-25T13:52:00Z,00000200,00000000,0006.08,0004.85,0003.88,0000.49,0000.48,0000.72,0001.15,0001.01,0000.93,19.8,25.9,08.7,06.0,0676.9,31.1
2021-08-25T13:53:00Z,00000200,00000000,0006.21,0004.74,0003.25,0001.33,0001.07,0000.40,0001.34,0000.91,0000.64,19.8,25.9,08.7,06.0,0676.9,31.1
2021-08-25T13:54:00Z,00000200,00000000,0006.17,0005.06,0003.10,0000.90,0001.05,0000.39,0001.38,0001.14,0001.14,19.8,25.9,08.7,06.0,0676.9,31.1
2021-08-25T13:55:00Z,00000200,00000000,0005.21,0004.81,0003.31,0001.21,0001.00,0000.07,0000.81,0001.17,0000.85,19.8,25.9,08.8,06.1,0676.9,31.1
2021-08-25T13:56:00Z,00000200,00000000,0006.15,0004.57,0003.37,0000.26,0000.87,0000.50,0000.74,0000.77,0000.41,19.8,25.9,08.7,06.0,0676.8,31.1
2021-08-25T13:57:00Z,00000200,40000000,,,,,,,0000.67,0000.55,0000.61,19.9,26.0,08.5,05.9,0676.9,31.1
2021-08-25T13:58:00Z,00000200,60000000,,,,,,,-000.34,-000.30,-000.20,19.6,26.1,08.7,05.9,0675.9,31.1
2021-08-25T13:59:00Z,00000200,20000000,,,,,,,0000.04,0000.05,-000.32,19.6,26.2,08.5,05.7,0675.8,31.1
